ヘリン-ローレンス彗星

152P/Helin-Lawrence (2012)

English version
Home page
Updated on September 3, 2011

---------------------------------------------------------------------

・ プロフィール

・ 軌道要素

Epoch 2012 July 12.0 TT = JDT 2456120.5
T 2012 July  9.23429 TT                                 MPC
q   3.1164539            (2000.0)            P               Q
n   0.10327105     Peri.  163.79967     -0.24270298     +0.95486181
a   4.4993555      Node    91.91045     -0.90798644     -0.16143526
e   0.3073555      Incl.    9.86734     -0.34154924     -0.24935433
P   9.54
From 137 observations 2001 Jan. 23-2011 Feb. 4, mean residual 0".8.

・ 星図

・ 光度変化

        m1 = 10.0 + 5 logΔ + 10.0 log r(t - 250)

---------------------------------------------------------------------

軌道要素はM.P.E.C. 2011-C16に掲載されたものです。
星図はステラナビゲータ Ver.8 (アストロアーツ) で作成したものです。
光度グラフはComet for Windowsで作成したものです。

---------------------------------------------------------------------

Copyright(C) Seiichi Yoshida (comet@aerith.net). All rights reserved.